[[{"header":{"parameterUnit":"m.s-1","parameterCategory":1,"la1":30.2991,"la2":30.254,"lo1":-89.0895,"lo2":-89.0444,"dy":0.0017,"dx":0.0017,"nx":28,"ny":28,"refTime":"2025-07-08T03:00:00:Z","depth":0,"parameterNumber":2,"parameterNumberName":"U-component_of_WINDS"},"data":[0,0,0,0,0,0,0,0,0,0,0,0,0,0,0,0,0,0,0,0,0,0,0,0,0,0,0,0,0,0,0,0,0,0,0,0,0,0,0,0,0,0,0,0,0,0,0,0,0,0,0,0,0,0,0,0,0,0,3.6043,3.6044,0,3.6159,3.6161,3.6162,3.6146,3.6144,3.6142,3.614,3.626,3.6264,3.6269,0,0,0,0,0,0,0,0,0,0,0,0,0,3.5809,3.5813,3.6043,3.6044,3.6046,3.6159,3.6161,3.6162,3.6146,3.6144,3.6141,3.6139,3.6258,3.6264,3.627,0,0,0,0,0,0,0,0,0,0,0,0,0,3.5917,3.5815,3.6042,3.6051,3.6053,3.6159,3.6161,3.6163,3.6147,3.6144,3.6141,3.6138,3.6256,3.6263,3.6271,3.6375,0,0,3.6293,3.6297,0,0,0,0,0,0,0,0,3.5911,3.5925,3.6048,3.6051,3.6053,3.6135,3.6122,3.6234,3.6147,3.6111,3.614,3.6137,3.622,3.6231,3.6259,3.6381,3.6386,3.6294,3.6299,3.6302,3.6304,0,0,0,0,0,0,0,3.5903,3.592,3.6089,3.605,3.6053,3.605,3.6062,3.6143,3.6181,3.6114,3.6113,3.6127,3.6221,3.6252,3.6262,3.6387,3.6294,3.6301,3.6305,3.6308,3.6604,3.6607,0,0,0,0,0,0,3.5893,3.5914,3.6085,3.6092,3.5973,3.6057,3.607,3.6112,3.618,3.6187,3.6129,3.6126,3.624,3.6253,3.6266,3.6393,3.6302,3.6309,3.6313,3.66,3.6604,3.6608,0,0,0,0,0,0,3.5888,3.5908,3.608,3.6003,3.6025,3.6064,3.611,3.6115,3.6146,3.6191,3.6198,3.6153,3.6239,3.6255,3.6349,3.6397,3.6312,3.6319,3.6596,3.6602,3.6606,3.6648,0,0,0,0,0,0,3.5881,3.5907,3.5945,3.6004,3.6029,3.616,3.6113,3.612,3.6159,3.6155,3.6216,3.6223,3.6238,3.6337,3.6356,3.6406,3.6325,3.6592,3.6599,3.6605,3.6642,3.6654,3.6663,0,0,0,0,0,3.5873,3.5952,3.5948,3.5968,3.6078,3.6163,3.6177,3.6192,3.6163,3.6203,3.6233,3.6221,3.639,3.6347,3.6368,3.642,3.6589,3.6597,3.6604,3.6637,3.6651,3.6663,0,0,0,0,0,0,3.5897,3.596,3.5955,3.6055,3.6104,3.616,3.621,3.6206,3.6264,3.6258,3.6275,3.6289,3.6383,3.6412,3.6363,3.6527,3.6485,3.6498,3.6504,3.6517,3.6528,3.6517,3.6331,0,0,0,0,0,3.5914,3.5977,3.6029,3.6112,3.6137,3.617,3.6207,3.6215,3.6266,3.6287,3.6323,3.6374,3.6438,3.648,3.6542,3.6648,3.6661,3.6695,3.6706,3.6714,3.6723,3.6783,3.6799,3.6633,3.6633,3.6633,0,0,3.5949,3.5992,3.603,3.6118,3.6157,3.6222,3.6187,3.6257,3.6306,3.6297,3.6387,3.6417,3.6475,3.6575,3.6621,3.6602,3.6773,3.6724,3.673,3.6735,3.6792,3.6808,3.6822,3.6638,3.6637,3.6636,0,0,3.6047,3.6085,3.6159,3.62,3.626,3.6282,3.63,3.6358,3.6377,3.6468,3.6463,3.6524,3.6634,3.6676,3.6711,3.6831,3.6822,3.6851,3.6905,3.6963,3.6976,3.6987,3.7029,3.7044,3.6861,3.6861,3.6861,0,3.6082,3.618,3.6198,3.627,3.631,3.6307,3.6383,3.6421,3.6498,3.6526,3.6504,3.6644,3.6683,3.6794,3.6824,3.6853,3.6875,3.6842,3.6973,3.6984,3.6996,3.7036,3.7052,3.6864,3.6864,3.6863,3.6863,0,3.6222,3.6291,3.6344,3.6419,3.6465,3.6539,3.6569,3.6614,3.662,3.6645,3.674,3.6787,3.6859,3.6887,3.6893,3.7,3.6986,3.6969,3.6927,3.7014,3.7052,3.7068,3.6868,3.6867,3.6866,3.6865,0,0,3.6332,3.642,3.6439,3.6474,3.6542,3.6596,3.6671,3.6743,3.6781,3.6836,3.6899,3.6996,3.6981,3.7022,3.7033,3.7085,3.7177,3.7061,3.7063,3.7079,3.7298,3.7309,3.7326,3.7174,3.7177,3.7179,3.7293,0,3.6435,3.6567,3.6587,3.6703,3.6768,3.6769,3.6835,3.6885,3.6912,3.6971,3.7002,3.7069,3.7045,3.707,3.7121,3.7154,3.722,3.7147,3.7232,3.7235,3.7214,3.7346,3.7357,3.7461,3.7308,3.731,3.7312,0,3.6571,3.663,3.6753,3.6815,3.6843,3.6902,3.697,3.7028,3.7085,3.7102,3.715,3.7156,3.7236,3.7195,3.7305,3.7255,3.7293,3.7315,3.7319,3.7325,3.7276,3.7353,3.7495,3.751,3.7336,3.7334,3.7332,0,3.6637,3.6749,3.6837,3.6868,3.6942,3.6984,3.7017,3.7072,3.7115,3.7176,3.7204,3.7274,3.7311,3.7366,3.7392,3.7359,3.7501,3.7461,3.7517,3.7516,3.7543,3.754,3.769,3.7572,3.7572,3.7571,3.7571,0,3.6748,3.6823,3.6868,3.6922,3.7007,3.7032,3.7116,3.7148,3.7198,3.7259,3.7266,3.7324,3.7356,3.7419,3.744,3.7529,3.7547,3.7562,3.7566,3.756,3.7557,3.7581,3.7573,3.7576,3.7575,3.7574,3.7573,0,3.6834,3.6868,3.6964,3.7029,3.7047,3.7107,3.7163,3.7216,3.7245,3.7323,3.7343,3.7388,3.7463,3.7496,3.7588,3.7602,3.7703,3.7703,3.7683,3.7684,3.7736,3.773,3.7904,3.7928,3.7797,3.7798,3.7799,0,3.6901,3.6959,3.7031,3.7073,3.7107,3.7175,3.7219,3.7247,3.7293,3.7366,3.7411,3.7487,3.7547,3.7668,3.7709,3.7781,3.7781,3.7838,3.7791,3.7784,3.778,3.7775,3.7781,3.7845,3.7846,3.7847,3.7848,0,3.7016,3.7031,3.7094,3.7164,3.7217,3.7274,3.7329,3.7364,3.7401,3.7453,3.753,3.7578,3.7673,3.7748,3.7823,3.7858,3.786,3.7863,3.7879,3.7871,3.7856,3.7863,3.7703,3.7858,3.7857,3.7856,3.7855,3.7855,3.7093,3.7145,3.7205,3.7276,3.7321,3.7374,3.7428,3.7465,3.7529,3.7609,3.7623,3.7705,3.7765,3.7866,3.7905,3.7971,3.7956,3.798,3.7986,3.799,3.7993,3.7849,3.7985,3.7984,3.7984,3.7984,3.7984,0,3.7207,3.7246,3.7312,3.739,3.7447,3.7446,3.7508,3.7555,3.7627,3.7684,3.7745,3.7835,3.7908,3.7958,3.8033,3.8076,3.8079,3.8095,3.809,3.8098,3.8002,3.7979,3.8091,3.8091,3.8091,3.8091,3.8091,3.8091,3.7272,3.7361,3.7383,3.7495,3.7534,3.7615,3.7651,3.77,3.7745,3.7845,3.7906,3.7939,3.7993,3.8073,3.8141,3.8154,3.818,3.8196,3.8208,3.8116,3.8105,3.8094,3.8073,3.8203,3.8203,3.8299,3.83,3.8301]},{"header":{"parameterUnit":"m.s-1","parameterCategory":1,"la1":30.2991,"la2":30.254,"lo1":-89.0895,"lo2":-89.0444,"dy":0.0017,"dx":0.0017,"nx":28,"ny":28,"refTime":"2025-07-08T03:00:00:Z","depth":0,"parameterNumber":3,"parameterNumberName":"V-component_of_WINDS"},"data":[0,0,0,0,0,0,0,0,0,0,0,0,0,0,0,0,0,0,0,0,0,0,0,0,0,0,0,0,0,0,0,0,0,0,0,0,0,0,0,0,0,0,0,0,0,0,0,0,0,0,0,0,0,0,0,0,0,0,1.8922,1.8925,0,1.9237,1.9241,1.9244,1.9275,1.9272,1.9269,1.9266,1.9592,1.9604,1.9615,0,0,0,0,0,0,0,0,0,0,0,0,0,1.8347,1.8358,1.8921,1.8925,1.8929,1.9237,1.9241,1.9245,1.9276,1.9272,1.9268,1.9264,1.9588,1.9602,1.9616,0,0,0,0,0,0,0,0,0,0,0,0,0,1.8623,1.8361,1.8921,1.8982,1.899,1.9236,1.9241,1.9246,1.9277,1.9272,1.9267,1.9262,1.9584,1.9601,1.9618,1.9826,0,0,1.9672,1.968,0,0,0,0,0,0,0,0,1.8608,1.8644,1.8969,1.8978,1.8988,1.9212,1.9158,1.9441,1.9278,1.9168,1.9266,1.926,1.947,1.9497,1.9567,1.9841,1.9855,1.9674,1.9684,1.9692,1.9697,0,0,0,0,0,0,0,1.8588,1.8631,1.9046,1.8973,1.8985,1.8994,1.9027,1.9212,1.9343,1.9177,1.918,1.9217,1.9474,1.955,1.9575,1.986,1.9673,1.9689,1.97,1.9707,2.032,2.0326,0,0,0,0,0,0,1.8557,1.8615,1.9036,1.9056,1.8782,1.9008,1.9046,1.9145,1.9341,1.9366,1.9221,1.9217,1.9522,1.9554,1.9586,1.9843,1.9692,1.9708,1.9719,2.0314,2.0321,2.0328,0,0,0,0,0,0,1.8545,1.8595,1.9024,1.8836,1.8891,1.9023,1.9134,1.9154,1.9229,1.9374,1.9398,1.9274,1.9519,1.9561,1.9766,1.9854,1.9716,1.9732,2.0308,2.0317,2.0324,2.0356,0,0,0,0,0,0,1.8528,1.859,1.867,1.8838,1.8901,1.9198,1.914,1.9164,1.9259,1.9257,1.943,1.9454,1.9519,1.9739,1.9783,1.9876,1.9746,2.03,2.0312,2.0322,2.0348,2.0365,2.0379,0,0,0,0,0,1.8508,1.8667,1.8674,1.8725,1.9004,1.9203,1.9239,1.931,1.9266,1.9348,1.944,1.9448,1.9837,1.976,1.981,1.9909,2.0295,2.0308,2.0321,2.0341,2.0361,2.0379,0,0,0,0,0,0,1.8508,1.869,1.87,1.8918,1.9044,1.9207,1.9313,1.9329,1.9471,1.9464,1.9546,1.9585,1.9786,1.9868,1.9779,2.012,2.0062,2.0085,2.006,2.008,2.0096,2.0073,1.9761,0,0,0,0,0,1.8533,1.8678,1.883,1.9008,1.9071,1.918,1.927,1.9313,1.9448,1.9502,1.9609,1.974,1.9892,1.999,2.0138,2.0359,2.0397,2.0452,2.0467,2.0479,2.0499,2.0622,2.0648,2.037,2.037,2.0369,0,0,1.8587,1.8705,1.8792,1.9011,1.9114,1.9263,1.9226,1.9385,1.9497,1.9526,1.9726,1.9809,1.9961,2.0174,2.0274,2.0248,2.0584,2.0496,2.0504,2.0518,2.0638,2.0664,2.0688,2.0379,2.0377,2.0376,0,0,1.8762,1.8865,1.9025,1.9128,1.9284,1.9356,1.9394,1.9554,1.961,1.9811,1.9836,1.997,2.023,2.0337,2.0425,2.0638,2.0651,2.0684,2.0767,2.0886,2.0908,2.0928,2.1005,2.1031,2.0703,2.0703,2.0703,0,1.881,1.9036,1.9105,1.9264,1.936,1.9391,1.9554,1.9651,1.9847,1.9913,1.9881,2.0207,2.0311,2.055,2.0602,2.0672,2.0719,2.0666,2.0899,2.0919,2.0939,2.1014,2.1042,2.0706,2.0706,2.0706,2.0705,0,1.9087,1.9243,1.9353,1.954,1.9648,1.9808,1.9902,2.0004,2.0036,2.0112,2.0316,2.0441,2.0615,2.0674,2.0709,2.0919,2.0898,2.0882,2.0825,2.0968,2.1039,2.1068,2.0711,2.071,2.0709,2.0708,0,0,1.9274,1.9496,1.9535,1.9621,1.9794,1.9916,2.0077,2.0245,2.033,2.0464,2.0602,2.0819,2.0805,2.0905,2.0951,2.1056,2.1217,2.1027,2.1032,2.1059,2.1457,2.1469,2.1501,2.1225,2.1231,2.1236,2.1444,0,1.9469,1.9756,1.9823,2.007,2.0214,2.0245,2.0385,2.0507,2.0581,2.0715,2.0797,2.095,2.0919,2.0979,2.1084,2.1175,2.1299,2.1161,2.1356,2.1362,2.1319,2.1539,2.1553,2.1744,2.1473,2.1478,2.1481,0,1.9737,1.9875,2.0136,2.0289,2.0352,2.0477,2.0637,2.0764,2.0902,2.0949,2.1059,2.1095,2.1264,2.1197,2.1432,2.1336,2.142,2.1477,2.1486,2.1509,2.1432,2.1569,2.1807,2.1836,2.1525,2.1522,2.1519,0,1.9848,2.0099,2.0288,2.036,2.0543,2.063,2.0711,2.0844,2.094,2.108,2.1143,2.13,2.1387,2.1508,2.1585,2.1529,2.1814,2.1753,2.1859,2.1857,2.1919,2.1915,2.2176,2.1969,2.1969,2.1968,2.1968,0,2.0061,2.0219,2.034,2.0456,2.0635,2.0709,2.0884,2.0965,2.1083,2.1216,2.1252,2.1376,2.1469,2.1606,2.1667,2.1853,2.1891,2.1934,2.1949,2.1933,2.1927,2.199,2.198,2.1976,2.1974,2.1973,2.1972,0,2.0216,2.0303,2.0511,2.0666,2.0709,2.0834,2.0968,2.1082,2.1155,2.1323,2.1367,2.1483,2.1646,2.1734,2.1939,2.198,2.2188,2.2195,2.2141,2.2148,2.2249,2.2239,2.2561,2.2608,2.2368,2.237,2.2372,0,2.0347,2.047,2.0638,2.0729,2.0811,2.0957,2.1055,2.1132,2.1234,2.1399,2.1494,2.1658,2.1795,2.2054,2.2157,2.2314,2.2326,2.2428,2.235,2.2329,2.2329,2.2322,2.2335,2.2442,2.2444,2.2446,2.2448,0,2.057,2.0607,2.0747,2.0902,2.1018,2.1144,2.1269,2.1342,2.144,2.1551,2.1718,2.1823,2.2031,2.2195,2.2359,2.2443,2.2463,2.2471,2.2504,2.2489,2.2454,2.2476,2.2181,2.2464,2.2462,2.2461,2.246,2.2459,2.0719,2.083,2.0965,2.112,2.1221,2.1337,2.1452,2.1539,2.1679,2.1854,2.189,2.2066,2.2201,2.2424,2.2512,2.2651,2.2631,2.2679,2.2691,2.2702,2.2707,2.2429,2.2681,2.2681,2.268,2.268,2.268,0,2.0946,2.1034,2.1175,2.1348,2.147,2.1475,2.1613,2.1715,2.1869,2.1992,2.2125,2.2316,2.2475,2.2589,2.2751,2.284,2.2854,2.2881,2.2876,2.2895,2.2715,2.2671,2.2867,2.2867,2.2867,2.2867,2.2867,2.2867,2.1078,2.1265,2.1318,2.1556,2.1643,2.1815,2.1894,2.2001,2.2099,2.2311,2.2442,2.2515,2.2636,2.2806,2.2952,2.2981,2.304,2.3067,2.3097,2.2928,2.2908,2.2889,2.2848,2.3078,2.3079,2.3267,2.3268,2.327]}]]